Torna al catalogo

STARLINK-37189

AttivoComunicazioniSSO
NORAD 68603·PAYLOAD·🇺🇸 United States

Lanciato Apr 5, 2026 da Vandenberg Space Force Base

Loading…

Prossimi Passaggi (prossime 24 ore)

TLE

AggiornatoSource: CelesTrak SupGP

Epoca: Sep 14, 2026, 23:05 UTC

1 68603C 26073B   26257.96229167  .00088727  00000+0  27534-2 0  2576
2 68603  97.2848  96.0054 0001655  91.5529  91.5511 15.33403971    14

Traccia STARLINK-37189 in tempo reale con AllMySat

Download on the App Store